Skip Page Navigation
NASA JPL Caltech
NASA Logo - Jet Propulsion Laboratory + View the NASA Portal
+ Center for Near-Earth Object Studies
JPL Home Earth Solar System Stars & Galaxies Technology
JPL Solar System Dynamics
BODIES ORBITS EPHEMERIDES TOOLS PHYSICAL DATA DISCOVERY FAQ SITE MAP
JPL Small-Body Database Browser
Search: [ help ]  
180373 (2003 YJ125)
Classification: Main-belt Asteroid          SPK-ID: 2180373
Ephemeris | Orbit Diagram | Orbital Elements | Mission Design | Physical Parameters | Discovery Circumstances ]

[ show orbit diagram ]
Orbital Elements at Epoch 2459200.5 (2020-Dec-17.0) TDB
Reference: JPL 23 (heliocentric ecliptic J2000)
 Element Value Uncertainty (1-sigma)   Units 
e .1030185386795522 3.0228e-08  
a 2.309762508960473 1.0106e-08 au
q 2.07181415059055 7.2599e-08 au
i 6.302448242782168 5.3554e-06 deg
node 343.7239712612345 2.9082e-05 deg
peri 77.693443816035 4.1647e-05 deg
M 315.1394649071745 2.9007e-05 deg
tp 2459360.275934853947
(2021-May-25.77593485)
0.0001036 TDB
period 1282.181240781051
3.51
8.4146e-06
2.304e-08
d
yr
n .2807715388042202 1.8426e-09 deg/d
Q 2.547710867330397 1.1147e-08 au
  Orbit Determination Parameters
   # obs. used (total)      530  
   data-arc span      7230 days (19.79 yr)  
   first obs. used      2001-02-19  
   last obs. used      2020-12-06  
   planetary ephem.      DE431  
   SB-pert. ephem.      SB431-N16  
   condition code      0  
   norm. resid. RMS      .56473  
   source      ORB  
   producer      Otto Matic  
   solution date      2021-Feb-24 11:43:21  

Additional Information
 Earth MOID = 1.09428 au 
 Jupiter MOID = 2.70781 au 
 T_jup = 3.570 
[ show covariance matrix ]

Ephemeris | Orbit Diagram | Orbital Elements | Mission Design | Physical Parameters | Discovery Circumstances ]

Physical Parameter Table
Parameter Symbol Value Units Sigma Reference Notes
absolute magnitude H 16.66   n/a E2021B55  

180373 (2003 YJ125)          Discovered 2003-Dec-27 by LINEAR at Socorro
Reference: 20080321/Numbers.arcLast Updated: 2008-03-26
Ephemeris | Orbit Diagram | Orbital Elements | Mission Design | Physical Parameters | Discovery Circumstances ]
ABOUT SSD CREDITS/AWARDS PRIVACY/COPYRIGHT GLOSSARY LINKS
FirstGov 2021-Apr-12 23:31 UT
(server date/time)  
NASA Home Page
Site Manager:   Ryan S. Park
Webmaster  Alan B. Chamberlin